Theta_e
311 308 308 308 307 308 309 311 312 311 313 313 311 311 310 309 309 307 307 307 307 308 309 313 314 315 316 324 329 332 333 333 333 334 335 335 334 333 331 330 330 330 329 327
311 310 309 309 309 309 311 312 311 310 312 312 311 311 309 309 310 309 310 308 307 307 309 310 313 314 315 321 328 332 332 332 332 333 334 332 332 330 329 329 330 330 329 327
311 312 311 311 312 312 312 312 312 311 311 311 311 310 310 310 310 310 310 308 308 308 308 308 309 311 314 321 327 330 332 331 331 331 331 328 326 325 324 325 326 327 327 327
309 309 311 310 310 311 313 311 312 311 311 310 309 309 310 311 310 311 310 308 308 307 307 308 309 309 313 319 325 328 331 331 329 329 329 327 324 320 322 323 323 324 325 324
310 311 311 312 311 311 312 313 312 311 311 313 312 310 309 309 310 309 308 310 308 308 308 308 308 310 313 316 323 327 328 329 328 327 326 325 321 321 322 321 321 321 320 320
311 311 311 310 311 310 311 313 313 311 311 312 310 309 308 308 310 310 311 309 310 308 306 306 309 311 312 313 314 318 325 325 325 325 323 323 322 319 318 318 317 317 317 317
313 313 312 311 312 312 312 309 311 315 314 312 309 309 310 310 311 315 315 313 310 307 306 305 305 307 310 312 313 314 319 322 321 321 320 318 318 317 316 317 317 316 314 313
314 314 312 311 311 313 311 309 313 312 317 314 313 311 313 311 311 315 313 311 309 308 306 305 305 306 308 310 312 313 315 317 317 317 316 313 312 312 311 312 313 313 314 315
311 312 312 311 311 311 312 314 311 312 303 311 312 312 311 313 314 314 314 311 310 307 306 306 306 307 308 309 310 311 312 312 312 314 314 313 311 310 310 310 309 308 307 309
313 314 312 312 312 312 312 311 315 314 314 315 311 312 313 313 313 313 311 311 309 308 306 304 304 306 308 308 309 309 309 310 310 311 311 311 309 308 308 308 308 307 307 307
312 315 314 312 312 312 313 314 314 313 314 313 312 309 311 314 313 312 310 309 310 308 305 304 303 306 307 307 308 308 308 309 309 309 310 309 307 306 306 306 306 306 306 305
315 316 314 314 313 313 312 312 314 315 314 313 315 314 313 311 311 310 309 308 307 308 305 303 304 305 306 306 306 307 307 308 308 308 308 307 307 307 305 304 304 304 304 304
316 316 315 315 315 314 315 314 313 315 315 316 316 315 309 311 308 309 310 308 306 305 304 303 303 303 304 305 305 306 306 307 307 307 306 306 305 304 303 302 302 302 302 300
313 312 318 322 317 316 316 316 315 318 317 316 317 317 314 313 314 311 310 310 308 305 305 303 302 302 304 305 305 306 306 306 306 306 305 305 304 303 302 301 300 300 299 299
312 314 313 315 312 311 313 312 313 316 318 320 318 318 315 314 314 314 312 311 309 307 304 304 304 302 303 304 305 305 306 306 306 305 304 304 304 302 301 299 298 297 296 296
311 313 312 313 311 311 313 313 313 314 314 315 315 315 313 313 312 311 311 311 310 307 305 304 303 302 303 304 305 305 305 305 305 304 304 303 303 301 299 298 296 295 294 293
311 311 313 313 312 312 314 313 313 313 314 314 316 313 310 310 311 308 306 305 306 306 305 305 304 303 304 305 305 305 305 305 304 303 303 302 301 300 298 296 295 293 292 291
309 311 311 311 307 316 308 309 311 312 312 313 312 305 304 304 305 306 302 302 301 302 302 301 300 300 299 299 300 300 303 303 302 302 301 301 299 298 296 295 293 292 291 290
307 308 307 305 299 303 304 306 311 312 313 305 305 305 304 303 304 306 301 300 301 300 300 300 299 298 298 297 297 297 298 299 299 299 299 299 298 296 295 293 292 290 289 288
303 302 302 301 301 301 300 304 304 307 310 301 304 304 303 302 306 305 302 299 298 298 298 298 298 297 297 296 295 295 295 296 296 297 298 297 296 295 294 293 291 290 289 288
305 308 308 301 298 298 299 304 304 306 305 301 300 301 299 300 301 300 298 298 298 298 297 297 296 295 295 295 294 295 293 293 294 294 295 295 295 294 293 292 290 289 287 285
302 304 306 305 305 302 300 304 305 302 301 300 299 300 302 300 298 297 296 296 295 296 296 295 294 294 295 295 293 293 293 293 293 293 293 293 293 292 291 290 288 286 285 283
300 298 299 299 300 298 299 296 299 298 297 299 301 300 299 297 296 295 296 295 294 295 295 295 294 293 294 293 293 293 293 292 292 291 291 291 291 290 289 288 286 284 283 282
294 297 296 298 299 299 297 297 297 297 297 298 299 298 296 295 293 294 293 293 292 293 294 293 293 292 291 291 291 290 290 290 290 290 290 289 288 287 287 286 286 284 282 282
294 296 293 292 298 295 295 295 295 296 297 298 296 295 294 292 292 292 291 291 292 292 292 292 291 290 290 289 290 289 288 288 288 288 288 287 286 286 285 285 285 285 284 284
293 295 296 294 293 294 293 292 292 293 293 292 291 291 292 292 291 290 290 291 291 291 291 290 289 288 288 288 288 287 287 287 287 287 287 286 286 285 285 285 284 284 285 284
Wind_Speed
3 4 6 10 8 7 3 2 1 3 5 5 8 9 10 10 7 11 10 11 11 12 14 22 33 36 32 33 35 38 40 41 41 34 33 33 33 34 32 34 32 31 31 31
3 6 9 8 5 6 4 3 4 5 3 3 6 12 10 9 10 12 16 12 14 7 6 15 23 37 36 34 37 38 40 41 41 40 36 30 33 32 32 32 33 31 33 31
7 5 11 6 3 5 4 4 4 6 0 3 5 9 8 7 6 10 15 12 10 11 11 10 12 31 38 36 38 38 40 42 41 38 35 30 25 26 28 30 30 31 32 33
7 8 5 6 6 6 4 4 5 4 1 3 2 8 6 8 12 6 11 10 11 10 9 8 8 16 31 32 31 32 36 39 39 38 37 35 29 24 32 35 33 31 32 33
7 7 7 8 5 7 6 2 4 4 3 1 2 3 8 4 8 11 12 14 8 9 9 9 9 18 25 25 26 26 28 32 35 35 35 33 31 30 27 30 32 32 31 31
5 1 4 8 2 6 9 6 8 5 3 4 8 7 4 6 6 6 5 6 5 5 7 7 10 13 13 16 20 21 25 28 30 31 30 30 31 28 25 23 27 29 29 30
3 4 3 4 6 5 5 7 1 2 0 8 5 6 10 6 6 5 5 6 7 7 6 6 7 9 11 13 17 20 23 24 24 27 26 25 25 26 26 28 30 31 31 31
10 7 10 7 9 9 8 8 6 8 5 5 2 8 6 9 8 6 4 6 6 7 7 6 6 9 11 13 15 18 20 20 20 23 23 20 20 22 24 24 25 28 31 33
7 7 4 7 6 13 7 9 7 3 1 3 5 7 7 7 9 8 4 8 8 7 7 8 8 10 10 12 13 15 17 18 18 21 23 23 23 22 22 22 22 22 24 26
3 1 3 1 2 2 7 7 2 1 3 4 5 5 8 4 7 10 7 7 5 5 6 5 6 8 9 10 11 11 13 16 17 20 22 23 25 25 24 24 23 22 22 23
4 1 2 5 6 10 3 4 4 4 5 5 4 6 5 5 3 4 6 7 1 4 4 4 4 7 7 9 12 13 15 17 19 20 22 22 22 23 23 24 23 22 22 23
1 2 6 6 3 1 3 10 8 5 3 4 4 8 1 7 5 5 5 6 5 4 2 3 5 7 8 10 12 14 16 17 18 19 20 21 22 23 23 23 25 25 24 24
3 2 1 5 3 2 3 2 6 3 3 8 6 6 5 3 8 5 5 5 2 5 5 4 4 4 7 9 11 12 14 16 16 18 21 22 24 25 25 24 24 25 25 24
3 5 4 7 1 1 4 3 4 1 7 5 12 2 7 7 7 7 8 4 1 3 5 3 3 6 10 12 13 15 16 17 17 19 22 25 27 27 25 24 25 25 26 26
4 4 4 5 4 3 2 2 1 2 4 6 12 13 8 14 11 6 8 4 2 4 6 7 9 7 12 13 17 18 20 19 19 22 25 28 28 26 24 24 25 24 25 25
5 3 2 3 10 9 6 11 10 9 7 6 13 14 13 11 5 7 8 6 4 6 5 7 7 7 10 14 16 18 20 21 20 24 29 29 28 27 26 26 26 25 25 24
6 4 4 3 3 6 7 16 14 11 14 11 10 8 3 3 5 5 6 6 6 6 5 5 5 7 9 8 9 12 17 20 22 26 29 29 28 28 28 28 27 28 27 25
5 4 2 3 3 6 5 3 11 18 7 10 2 4 2 3 2 3 1 3 5 5 4 4 4 8 9 13 14 15 15 16 18 22 26 27 27 28 29 28 29 29 28 27
4 3 3 4 3 5 7 4 7 8 10 5 6 4 0 2 3 4 2 2 3 4 6 9 10 10 13 14 15 15 14 13 14 18 21 23 25 27 28 28 29 28 26 26
3 2 3 2 4 7 6 3 2 5 4 4 6 5 2 3 2 2 3 3 4 5 8 11 13 13 11 12 12 12 13 13 14 15 17 18 21 25 27 28 27 26 26 26
5 5 10 3 3 7 6 4 2 4 4 5 5 4 3 2 3 4 7 7 9 13 13 10 10 11 13 13 12 10 10 11 11 11 12 14 17 20 23 23 23 24 23 22
9 9 5 3 3 9 6 3 6 4 3 5 4 4 2 3 6 6 8 8 9 12 13 14 13 14 13 12 12 13 11 10 9 9 11 13 15 17 19 19 19 19 20 21
3 6 6 8 6 3 2 5 4 4 4 2 2 1 2 4 5 9 8 7 7 14 16 16 14 14 14 12 11 11 13 11 8 9 10 13 15 16 16 18 19 20 20 20
3 3 3 4 2 6 6 4 4 3 4 4 4 2 2 6 7 7 8 7 6 12 15 15 14 16 18 14 12 14 13 10 9 10 11 13 15 16 16 17 18 20 21 20
4 6 6 1 3 4 1 4 4 3 3 2 4 3 5 6 6 6 6 6 10 14 15 12 12 14 17 16 14 11 10 11 10 11 11 12 14 14 16 17 20 22 22 24
5 5 4 4 5 3 4 5 5 4 6 9 6 4 4 7 7 4 6 10 13 18 15 14 13 13 13 12 12 10 9 9 12 13 13 15 16 16 18 18 17 16 16 16
Wind_Direction
209 124 186 199 192 203 171 196 247 271 203 154 220 254 252 268 271 278 258 251 248 244 241 239 226 216 211 208 202 200 197 199 203 196 194 201 197 205 207 211 213 213 214 214
62 215 215 205 207 217 225 257 259 294 164 159 273 262 250 258 246 234 250 252 243 240 234 247 228 216 209 201 198 199 201 198 199 201 198 201 204 208 211 211 210 215 215 217
166 228 193 180 189 173 205 179 205 217 320 300 318 277 264 262 254 260 254 243 244 231 230 239 229 211 207 198 198 200 200 200 200 202 203 211 212 215 213 209 203 207 213 215
218 233 135 181 207 149 225 202 203 249 55 242 123 287 288 279 271 243 265 256 241 235 237 223 197 191 198 197 200 203 201 202 204 208 211 211 211 208 217 216 213 210 210 212
236 162 178 205 197 163 217 145 162 177 174 337 219 278 271 285 281 268 244 253 249 244 226 197 182 181 189 195 196 197 196 203 209 211 213 224 218 221 225 220 219 215 213 216
185 182 167 192 94 164 145 76 38 34 76 277 184 188 216 207 213 267 291 246 170 119 101 95 121 165 174 194 201 200 199 199 205 209 213 215 219 223 225 217 217 216 217 217
172 201 160 128 79 34 99 96 11 329 335 244 229 194 246 268 229 210 212 171 167 152 144 134 120 129 148 169 184 195 197 194 197 202 209 209 216 223 228 229 224 221 219 220
188 249 163 186 181 172 191 160 167 194 198 252 342 237 244 226 254 259 39 198 162 170 164 161 164 164 172 180 181 182 187 192 196 197 202 206 210 219 228 227 226 228 228 230
176 241 151 184 159 154 202 214 180 87 47 44 226 290 289 267 263 276 233 184 191 177 171 170 169 178 183 193 195 193 195 203 205 208 214 219 225 222 221 221 228 235 235 231
251 206 329 81 81 278 173 150 97 232 172 241 254 262 242 308 316 322 314 236 218 193 164 155 165 175 190 201 203 202 208 210 212 217 225 231 234 232 227 226 229 228 226 224
166 145 314 128 202 177 153 198 198 160 164 182 266 257 255 93 30 42 22 25 106 157 168 177 174 168 181 196 199 200 203 205 212 219 225 228 230 230 230 229 228 226 223 223
335 204 208 202 195 0 287 215 188 168 220 216 164 250 102 133 145 105 45 61 72 101 158 165 149 161 185 208 212 209 210 214 219 221 222 227 226 222 223 223 224 229 230 228
166 331 72 351 342 31 208 237 233 230 82 205 174 250 191 95 58 50 57 50 97 118 120 137 145 185 220 234 234 230 227 227 227 227 229 229 226 224 226 230 223 218 221 224
73 160 220 233 216 6 170 74 36 271 213 208 234 168 255 44 15 6 7 336 198 212 183 201 190 226 239 241 245 243 241 239 236 235 235 234 233 232 234 234 227 222 220 221
129 204 155 165 168 140 135 97 63 243 305 225 268 278 323 305 298 295 293 322 293 244 238 211 217 223 226 238 245 249 251 246 242 242 240 240 238 237 237 236 232 227 226 225
171 169 141 213 180 174 195 201 208 204 203 231 254 275 244 276 292 313 300 314 327 287 282 294 308 294 266 259 258 265 266 264 252 244 245 243 237 231 229 232 230 228 225 223
146 143 155 239 213 156 266 222 205 195 190 181 223 225 3 53 48 34 25 30 33 44 28 15 8 20 16 356 325 299 296 288 267 251 249 242 236 229 228 229 226 224 223 222
146 165 168 163 94 227 257 170 203 200 188 210 269 107 99 165 244 142 347 28 12 355 4 350 338 340 341 338 340 332 313 286 271 257 250 244 236 231 230 228 226 224 220 218
148 148 166 150 196 305 304 205 160 172 224 159 140 138 207 294 170 204 146 41 349 328 317 318 332 337 340 348 342 332 319 302 278 265 256 247 236 229 226 224 226 227 224 221
144 119 139 112 167 211 244 249 243 126 266 180 135 155 108 8 117 257 327 348 307 303 327 333 339 337 340 344 339 332 321 307 289 280 268 257 242 232 228 230 229 229 227 228
165 192 205 181 224 284 242 232 253 107 232 170 161 166 169 139 196 273 313 308 314 312 326 334 331 331 328 328 326 324 318 301 301 284 268 254 243 239 238 234 232 230 227 228
174 170 187 148 187 264 189 88 161 158 117 146 165 150 164 248 286 282 292 291 301 307 321 327 321 319 320 319 318 312 302 306 301 289 273 253 239 228 225 229 231 224 220 221
219 180 172 175 205 207 166 132 141 132 139 131 99 11 340 312 301 305 290 301 287 301 307 313 306 305 308 302 293 292 301 297 282 263 249 244 235 230 227 214 207 208 213 215
253 156 157 96 203 142 129 131 117 138 140 153 185 232 286 272 292 272 286 289 291 301 303 311 306 304 307 310 298 291 292 282 269 260 247 234 223 215 218 213 210 211 203 201
187 140 169 306 131 148 212 116 136 127 109 227 253 231 248 273 278 265 271 287 295 303 312 316 312 309 310 314 307 295 278 268 253 239 235 232 229 222 214 219 216 212 228 226
179 165 165 205 169 133 197 139 160 201 217 223 229 270 263 244 257 259 277 293 296 303 311 308 307 302 306 306 306 291 272 260 248 238 231 227 219 219 226 217 225 235 231 231